Weather History for Audubon, IA

Change the Weather History Date:

Tuesday, May 12, 2009

  Actual Average Record
Temperature  
Mean Temperature 59 °F -  
Max Temperature 68 °F 72 °F 89 °F (1956)
Min Temperature 50 °F 46 °F 28 °F (2013)
Degree Days  
Heating Degree Days 6    
Growing Degree Days 9 (Base 50)    
Moisture  
Dew Point 50 °F    
Average Humidity 74    
Maximum Humidity 100    
Minimum Humidity 46    
Precipitation  
Precipitation 0.13 in - - ()
Sea Level Pressure  
Sea Level Pressure 29.92 in    
Wind  
Wind Speed 8 mph (South)    
Max Wind Speed 24 mph    
Max Gust Speed 31 mph    
Visibility 9 miles    
Events Rain    
Averages and records for this station are not official NWS values.
T = Trace of Precipitation, MM = Missing Value Source: NWS Daily Summary

Daily Weather History Graph

Daily Weather History Graph

Search for Another Location

Airport:

Trip Planner

Search our weather history database for the weather conditions in past years. The results will help you decide how hot, cold, wet, or windy it might be!

Date:

Astronomy

May. 12, 2009 Rise Set
Actual Time 6:02 AM CDT 8:29 PM CDT
Civil Twilight 5:31 AM CDT 9:01 PM CDT
Nautical Twilight 4:52 AM CDT 9:40 PM CDT
Astronomical Twilight 4:08 AM CDT 10:24 PM CDT
Moon No Moon Rise 8:13 AM CDT (5/12)
Length of Visible Light 15h 29m
Length of Day
14h 27m
Waning Gibbous, 88% of the Moon is Illuminated
May 12
Waning Gibbous
May 17
Last Quarter
May 24
New
May 30
First Quarter
Jun 7
Full

Hourly Weather History & Observations

Time (CDT) Temp. Dew Point Humidity Pressure Visibility Wind Dir Wind Speed Gust Speed Precip Events Conditions
12:15 AM 50.0 °F 44.6 °F 82% 30.09 in 10.0 mi Calm Calm - N/A   Clear
12:35 AM 50.0 °F 44.6 °F 82% 30.08 in 10.0 mi Calm Calm - N/A   Scattered Clouds
12:55 AM 50.0 °F 44.6 °F 82% 30.08 in 10.0 mi Calm Calm - N/A   Scattered Clouds
1:15 AM 53.6 °F 44.6 °F 72% 30.08 in 10.0 mi South 3.5 mph - N/A   Mostly Cloudy
1:35 AM 53.6 °F 44.6 °F 72% 30.08 in 10.0 mi South 4.6 mph - N/A   Mostly Cloudy
1:55 AM 55.4 °F 44.6 °F 67% 30.07 in 10.0 mi South 6.9 mph - N/A   Scattered Clouds
2:15 AM 55.4 °F 44.6 °F 67% 30.07 in 10.0 mi South 4.6 mph - N/A   Clear
2:35 AM 55.4 °F 44.6 °F 67% 30.07 in 10.0 mi South 5.8 mph - N/A   Scattered Clouds
2:55 AM 53.6 °F 44.6 °F 72% 30.06 in 10.0 mi South 5.8 mph - N/A   Clear
3:15 AM 53.6 °F 44.6 °F 72% 30.06 in 10.0 mi South 5.8 mph - N/A   Clear
3:35 AM 53.6 °F 44.6 °F 72% 30.06 in 10.0 mi South 5.8 mph - N/A   Clear
3:55 AM 53.6 °F 44.6 °F 72% 30.06 in 10.0 mi South 5.8 mph - N/A   Clear
4:15 AM 51.8 °F 44.6 °F 76% 30.06 in 10.0 mi South 5.8 mph - N/A   Clear
4:35 AM 50.0 °F 44.6 °F 82% 30.05 in 10.0 mi SSE 3.5 mph - N/A   Clear
4:55 AM 50.0 °F 44.6 °F 82% 30.05 in 10.0 mi SSE 4.6 mph - N/A   Clear
5:15 AM 51.8 °F 44.6 °F 76% 30.04 in 10.0 mi South 5.8 mph - N/A   Scattered Clouds
5:35 AM 51.8 °F 44.6 °F 76% 30.03 in 10.0 mi SSE 5.8 mph - N/A   Clear
5:55 AM 51.8 °F 44.6 °F 76% 30.03 in 10.0 mi South 5.8 mph - N/A   Clear
6:15 AM 51.8 °F 46.4 °F 82% 30.03 in 10.0 mi South 4.6 mph - N/A   Mostly Cloudy
6:35 AM 53.6 °F 46.4 °F 77% 30.03 in 10.0 mi South 9.2 mph - N/A   Mostly Cloudy
6:55 AM 55.4 °F 46.4 °F 72% 30.03 in 10.0 mi South 10.4 mph - N/A   Mostly Cloudy
7:15 AM 55.4 °F 46.4 °F 72% 30.02 in 10.0 mi South 12.7 mph - N/A   Mostly Cloudy
7:35 AM 55.4 °F 46.4 °F 72% 30.01 in 10.0 mi South 10.4 mph - N/A   Scattered Clouds
7:55 AM 57.2 °F 46.4 °F 67% 30.00 in 10.0 mi South 12.7 mph 17.3 mph N/A   Scattered Clouds
8:15 AM 59.0 °F 46.4 °F 63% 30.00 in 10.0 mi South 13.8 mph - N/A   Scattered Clouds
8:35 AM 62.6 °F 48.2 °F 59% 30.00 in 10.0 mi South 11.5 mph - N/A   Scattered Clouds
8:55 AM 62.6 °F 48.2 °F 59% 29.99 in 10.0 mi South 15.0 mph 23.0 mph N/A   Clear
9:15 AM 62.6 °F 48.2 °F 59% 29.99 in 10.0 mi South 16.1 mph 21.9 mph N/A   Clear
9:35 AM 64.4 °F 48.2 °F 56% 29.97 in 10.0 mi South 24.2 mph 28.8 mph N/A   Clear
10:15 AM 66.2 °F 48.2 °F 52% 29.95 in 10.0 mi South 24.2 mph 29.9 mph N/A   Clear
10:35 AM 66.2 °F 46.4 °F 49% 29.95 in 10.0 mi South 19.6 mph 31.1 mph N/A   Scattered Clouds
10:55 AM 68.0 °F 46.4 °F 46% 29.94 in 10.0 mi South 24.2 mph 31.1 mph N/A   Scattered Clouds
11:15 AM 68.0 °F 48.2 °F 49% 29.93 in 10.0 mi South 18.4 mph 28.8 mph N/A   Scattered Clouds
11:35 AM 68.0 °F 50.0 °F 52% 29.93 in 10.0 mi South 21.9 mph 27.6 mph N/A   Mostly Cloudy
11:55 AM 68.0 °F 50.0 °F 52% 29.91 in 10.0 mi South 16.1 mph 28.8 mph N/A   Mostly Cloudy
12:15 PM 68.0 °F 51.8 °F 56% 29.91 in 10.0 mi South 20.7 mph - N/A   Mostly Cloudy
12:35 PM 66.2 °F 51.8 °F 60% 29.90 in 10.0 mi South 12.7 mph 27.6 mph N/A   Overcast
12:55 PM 66.2 °F 53.6 °F 64% 29.89 in 10.0 mi South 19.6 mph 25.3 mph N/A   Overcast
1:15 PM 64.4 °F 51.8 °F 64% 29.88 in 10.0 mi South 13.8 mph 25.3 mph N/A   Mostly Cloudy
1:35 PM 64.4 °F 53.6 °F 68% 29.86 in 10.0 mi South 16.1 mph - N/A   Overcast
1:55 PM 64.4 °F 51.8 °F 64% 29.85 in 10.0 mi South 11.5 mph 19.6 mph N/A   Overcast
2:15 PM 66.2 °F 50.0 °F 56% 29.83 in 10.0 mi SSE 16.1 mph 24.2 mph N/A   Overcast
2:35 PM 66.2 °F 50.0 °F 56% 29.82 in 10.0 mi SSE 12.7 mph 20.7 mph N/A   Overcast
2:55 PM 64.4 °F 50.0 °F 59% 29.82 in 10.0 mi SSE 15.0 mph 24.2 mph N/A   Overcast
3:15 PM 64.4 °F 48.2 °F 56% 29.80 in 10.0 mi SSE 17.3 mph 24.2 mph N/A   Overcast
3:35 PM 62.6 °F 51.8 °F 68% 29.80 in 10.0 mi South 16.1 mph 23.0 mph N/A Rain Light Rain
3:55 PM 60.8 °F 53.6 °F 77% 29.80 in 10.0 mi South 16.1 mph - 0.02 in Rain Light Rain
4:15 PM 60.8 °F 53.6 °F 77% 29.81 in 10.0 mi South 11.5 mph 17.3 mph N/A Rain Light Rain
4:35 PM 60.8 °F 55.4 °F 82% 29.82 in 10.0 mi South 10.4 mph - 0.01 in Rain Light Rain
4:55 PM 59.0 °F 55.4 °F 88% 29.81 in 7.0 mi South 10.4 mph 17.3 mph 0.02 in Rain Rain
5:15 PM 59.0 °F 57.2 °F 94% 29.79 in 7.0 mi SSE 6.9 mph - 0.03 in Rain Rain
5:35 PM 59.0 °F 57.2 °F 94% 29.77 in 10.0 mi SSE 11.5 mph - 0.04 in Rain Light Rain
5:55 PM 59.0 °F 57.2 °F 94% 29.76 in 5.0 mi SSE 10.4 mph - 0.04 in   Drizzle
6:15 PM 60.8 °F 57.2 °F 88% 29.75 in 10.0 mi SSE 11.5 mph 19.6 mph N/A Rain Light Rain
6:35 PM 59.0 °F 57.2 °F 94% 29.74 in 10.0 mi SSE 9.2 mph - N/A   Mostly Cloudy
6:55 PM 59.0 °F 57.2 °F 94% 29.73 in 7.0 mi SSE 13.8 mph 19.6 mph N/A Rain Heavy Rain
7:15 PM 59.0 °F 59.0 °F 100% 29.72 in 3.5 mi SSE 13.8 mph 23.0 mph N/A   Drizzle
7:35 PM 60.8 °F 59.0 °F 94% 29.71 in 3.5 mi South 15.0 mph 24.2 mph N/A   Drizzle
7:55 PM 59.0 °F 59.0 °F 100% 29.71 in 2.5 mi South 13.8 mph 23.0 mph 0.01 in   Drizzle
8:15 PM 59.0 °F 59.0 °F 100% 29.71 in 3.0 mi South 12.7 mph 20.7 mph N/A   Drizzle
8:35 PM 59.0 °F 59.0 °F 100% 29.72 in 3.5 mi South 10.4 mph - N/A   Drizzle
8:55 PM 59.0 °F 59.0 °F 100% 29.71 in 3.0 mi SSE 10.4 mph 17.3 mph 0.02 in   Heavy Drizzle
9:15 PM 59.0 °F 59.0 °F 100% 29.70 in 3.5 mi South 16.1 mph 21.9 mph 0.01 in Rain Heavy Rain
9:35 PM 59.0 °F 59.0 °F 100% 29.71 in 5.0 mi South 13.8 mph 20.7 mph 0.02 in Rain Rain
9:55 PM 59.0 °F 59.0 °F 100% 29.70 in 4.0 mi South 16.1 mph 24.2 mph 0.02 in   Drizzle
10:15 PM 60.8 °F 59.0 °F 94% 29.70 in 4.0 mi South 16.1 mph 21.9 mph N/A   Drizzle
10:35 PM 60.8 °F 59.0 °F 94% 29.70 in 4.0 mi South 12.7 mph 18.4 mph N/A   Light Drizzle
10:55 PM 60.8 °F 59.0 °F 94% 29.69 in 4.0 mi South 12.7 mph 19.6 mph N/A   Overcast
11:15 PM 60.8 °F 59.0 °F 94% 29.67 in 5.0 mi South 15.0 mph 20.7 mph N/A   Overcast
11:35 PM 60.8 °F 59.0 °F 94% 29.66 in 7.0 mi South 12.7 mph 17.3 mph N/A   Overcast
11:55 PM 60.8 °F 59.0 °F 94% 29.65 in 7.0 mi South 15.0 mph 20.7 mph N/A   Overcast